Stations météo

réclame
Mon MeteoGroup
Barcelona/Aeropuerto, Espagne (8181): Température de l'air & dewpoint: 20.09.2018 17:00:00 - 26.09.2018 17:00:00 (CEST)Barcelona/Aeropuerto, Espagne (8181): Vitesse du vent: 20.09.2018 17:00:00 - 26.09.2018 17:00:00 (CEST)Barcelona/Aeropuerto, Espagne (8181): Direction du vent: 20.09.2018 17:00:00 - 26.09.2018 17:00:00 (CEST)Barcelona/Aeropuerto, Espagne (8181): reduced air pressure: 20.09.2018 17:00:00 - 26.09.2018 17:00:00 (CEST)Barcelona/Aeropuerto, Espagne (8181): visibility: 20.09.2018 17:00:00 - 26.09.2018 17:00:00 (CEST)
Date & Time tt [°C] td [°C] ff [km/h] ff [knt] dd ppp [hPa] vv [km]
26.09.2018 17:00:00 24,3 14,5 34 18 E 1030,8 17
26.09.2018 16:00:00 25,0 15,5 34 18 E 1030,9 14
26.09.2018 15:00:00 24,8 15,1 35 19 E 1031,0 17
26.09.2018 14:00:00 24,5 15,5 37 20 E 1031,4 17
26.09.2018 13:00:00 24,3 15,3 44 24 E 1031,6 17
26.09.2018 12:00:00 24,2 13,0 39 21 E 1031,6 20
26.09.2018 11:00:00 23,5 13,9 39 21 ENE 1031,4 20
26.09.2018 10:00:00 22,3 14,0 34 18 ENE 1030,9 14
26.09.2018 09:00:00 22,0 14,4 35 19 ENE 1030,1 16
26.09.2018 08:00:00 21,6 14,5 31 17 ENE 1029,6 18
26.09.2018 07:00:00 21,7 14,1 29 16 ENE 1029,0 21
26.09.2018 06:00:00 21,9 14,5 29 16 ENE 1028,7 18
26.09.2018 05:00:00 21,9 14,8 28 15 ENE 1028,4 18
26.09.2018 04:00:00 22,0 15,1 31 17 ENE 1028,3 16
26.09.2018 03:00:00 22,3 15,3 29 16 ENE 1028,5 16
26.09.2018 02:00:00 22,5 14,9 35 19 ENE 1028,1 16
26.09.2018 01:00:00 22,6 14,4 31 17 ENE 1027,9 16
26.09.2018 00:00:00 22,6 14,4 26 14 ENE 1027,7 14
25.09.2018 23:00:00 22,6 14,4 22 12 ENE 1027,5 15
25.09.2018 22:00:00 22,4 14,3 28 15 ENE 1027,2 16
25.09.2018 21:00:00 22,8 13,8 31 17 E 1026,8 20
25.09.2018 20:00:00 23,1 14,9 34 18 E 1026,1 15
25.09.2018 19:00:00 23,7 15,3 39 21 E 1025,5 16
25.09.2018 18:00:00 24,4 14,8 41 22 E 1025,2 14
25.09.2018 17:00:00 25,1 15,0 37 20 E 1025,1 15
25.09.2018 16:00:00 25,2 15,1 31 17 E 1025,0 18
25.09.2018 15:00:00 25,6 12,0 29 16 E 1025,4 30
25.09.2018 14:00:00 25,5 9,7 26 14 E 1025,8 30
25.09.2018 13:00:00 24,7 13,9 15 8 SE 1026,0 30
25.09.2018 12:00:00 24,2 10,8 13 7 N 1026,2 28
25.09.2018 11:00:00 22,3 9,0 18 10 N 1026,2 30
25.09.2018 10:00:00 20,4 8,0 21 11 N 1025,8 22
25.09.2018 09:00:00 18,9 8,8 16 9 N 1025,3 28
25.09.2018 08:00:00 18,6 9,6 16 9 N 1024,6 25
25.09.2018 07:00:00 18,8 10,6 18 10 N 1024,2 30
25.09.2018 06:00:00 19,8 12,5 13 7 N 1023,7 30
25.09.2018 05:00:00 21,3 13,2 18 10 E 1023,5 30
25.09.2018 04:00:00 21,5 13,1 16 9 E 1023,5 30
25.09.2018 03:00:00 21,9 16,0 9 5 E 1023,5 30
25.09.2018 02:00:00 22,0 15,4 11 6 E 1023,3 30
25.09.2018 01:00:00 22,4 16,4 13 7 E 1023,2 30
25.09.2018 00:00:00 23,5 17,5 15 8 ESE 1023,1 16
24.09.2018 23:00:00 23,8 17,1 16 9 ESE 1022,7 23
24.09.2018 22:00:00 24,2 17,8 18 10 E 1022,3 21
24.09.2018 21:00:00 24,6 18,8 9 5 E 1021,8 15
24.09.2018 20:00:00 24,9 19,3 15 8 ESE 1021,2 10
24.09.2018 19:00:00 25,5 19,2 15 8 SE 1020,7 22
24.09.2018 18:00:00 25,6 18,8 15 8 SSE 1020,5 20
24.09.2018 17:00:00 26,0 18,9 15 8 SE 1020,5 30
24.09.2018 16:00:00 26,0 19,2 21 11 ESE 1020,7 30
24.09.2018 15:00:00 24,8 19,7 18 10 ESE 1021,1 22
24.09.2018 14:00:00 25,0 20,8 16 9 E 1021,7 22
24.09.2018 13:00:00 25,5 20,3 15 8 ENE 1021,9 21
24.09.2018 12:00:00 25,6 20,4 13 7 NNE 1021,9 29
24.09.2018 11:00:00 25,5 18,9 18 10 NE 1021,8 27
24.09.2018 10:00:00 24,3 17,5 16 9 N 1021,4 22
24.09.2018 09:00:00 23,0 18,3 16 9 N 1020,9 18
24.09.2018 08:00:00 22,2 18,6 11 6 N 1020,0 12
24.09.2018 07:00:00 22,2 19,4 15 8 N 1019,6 10
24.09.2018 06:00:00 22,6 19,6 13 7 N 1019,6 11
24.09.2018 05:00:00 22,8 19,4 13 7 N 1019,6 13
24.09.2018 04:00:00 22,7 18,5 4 2 NNW 1019,9 17
24.09.2018 03:00:00 22,6 17,9 8 4 N 1019,9 22
24.09.2018 02:00:00 23,5 18,4 0 0 N 1020,0 20
24.09.2018 01:00:00 23,9 18,3 8 4 N 1020,8 22
24.09.2018 00:00:00 23,9 18,8 5 3 NW 1021,0 30
23.09.2018 23:00:00 25,4 22,7 13 7 WSW 1020,7 25
23.09.2018 22:00:00 25,4 22,5 11 6 WSW 1020,6 17
23.09.2018 21:00:00 26,0 22,5 15 8 SW 1020,1 23
23.09.2018 20:00:00 26,1 21,5 22 12 WSW 1019,4 25
23.09.2018 19:00:00 27,3 19,2 24 13 WSW 1019,2 30
23.09.2018 18:00:00 27,8 22,6 24 13 WSW 1019,1 18
23.09.2018 17:00:00 27,9 22,3 29 16 WSW 1019,4 30
23.09.2018 16:00:00 28,5 19,5 29 16 SW 1019,9 23
23.09.2018 15:00:00 28,1 21,2 26 14 SW 1020,7 24
23.09.2018 14:00:00 27,9 21,9 24 13 SW 1021,5 25
23.09.2018 13:00:00 27,8 22,5 21 11 SW 1022,1 17
23.09.2018 12:00:00 27,6 22,1 13 7 SSW 1022,5 16
23.09.2018 11:00:00 26,8 20,6 5 3 N 1022,6 12
23.09.2018 10:00:00 24,6 19,7 13 7 N 1022,4 12
23.09.2018 09:00:00 22,6 18,8 16 9 N 1022,0 11
23.09.2018 08:00:00 22,0 18,8 15 8 N 1021,8 11
23.09.2018 07:00:00 22,1 19,3 15 8 N 1021,5 12
23.09.2018 06:00:00 22,5 20,0 13 7 N 1021,5 9
23.09.2018 05:00:00 22,8 20,1 11 6 N 1021,7 11
23.09.2018 04:00:00 22,7 19,7 11 6 N 1021,9 15
23.09.2018 03:00:00 22,9 19,3 0 0 N 1022,2 22
23.09.2018 02:00:00 23,3 19,9 4 2 NW 1022,3 16
23.09.2018 01:00:00 24,4 20,1 8 4 N 1022,4 19
23.09.2018 00:00:00 25,0 21,5 4 2 SW 1022,4 18
22.09.2018 23:00:00 24,7 21,8 4 2 W 1022,3 0,2
22.09.2018 22:00:00 25,0 21,9 11 6 WSW 1022,0 15
22.09.2018 21:00:00 25,8 22,1 13 7 SW 1021,6 18
22.09.2018 20:00:00 26,0 22,3 16 9 WSW 1021,0 20
22.09.2018 19:00:00 26,9 21,4 24 13 WSW 1020,2 30
22.09.2018 18:00:00 27,6 20,2 26 14 SW 1020,4 30
22.09.2018 17:00:00 28,5 19,2 22 12 SW 1020,4 2,3
22.09.2018 16:00:00 28,6 17,6 28 15 SW 1020,6 30
22.09.2018 15:00:00 28,4 18,0 28 15 SW 1021,0 30
22.09.2018 14:00:00 28,3 19,8 24 13 SW 1021,6 20
22.09.2018 13:00:00 28,7 19,9 22 12 SW 1021,8 30
22.09.2018 12:00:00 28,1 21,7 15 8 SW 1022,3 22
22.09.2018 11:00:00 26,6 20,9 8 4 N 1022,4 12
22.09.2018 10:00:00 25,2 20,0 13 7 N 1022,1 10
22.09.2018 09:00:00 23,5 19,8 11 6 N 1021,6 8
22.09.2018 08:00:00 22,4 19,0 11 6 N 1021,3 9
22.09.2018 07:00:00 22,4 19,0 4 2 N 1020,7 9
22.09.2018 06:00:00 22,6 19,2 9 5 N 1020,4 9
22.09.2018 05:00:00 22,4 19,6 9 5 N 1020,5 9
22.09.2018 04:00:00 22,6 19,7 9 5 N 1020,7 9
22.09.2018 03:00:00 22,8 19,8 8 4 N 1020,7 9
22.09.2018 02:00:00 23,7 19,8 8 4 NNW 1020,8 12
22.09.2018 01:00:00 24,4 19,9 8 4 N 1020,8 14
22.09.2018 00:00:00 24,7 20,8 11 6 ENE 1020,7 13
21.09.2018 23:00:00 25,1 20,8 13 7 E 1020,1 15
21.09.2018 22:00:00 25,2 21,7 15 8 E 1019,6 12
21.09.2018 21:00:00 25,3 21,8 18 10 E 1018,9 13
21.09.2018 20:00:00 26,4 22,0 5 3 SE 1018,2 20
21.09.2018 19:00:00 27,3 22,5 9 5 S 1017,2 30
21.09.2018 18:00:00 28,2 22,2 13 7 SSW 1016,9 30
21.09.2018 17:00:00 27,8 22,3 16 9 SW 1016,7 20
21.09.2018 16:00:00 28,5 22,1 24 13 SW 1016,5 30
21.09.2018 15:00:00 28,3 22,3 29 16 SW 1016,8 20
21.09.2018 14:00:00 27,9 21,8 31 17 SW 1016,9 15
21.09.2018 13:00:00 28,3 21,8 28 15 SW 1017,2 16
21.09.2018 12:00:00 29,1 19,9 16 9 W 1017,4 15
21.09.2018 11:00:00 26,8 17,6 8 4 N 1017,3 20
21.09.2018 10:00:00 24,3 15,7 8 4 N 1016,9 18
21.09.2018 09:00:00 22,1 15,2 13 7 N 1016,7 18
21.09.2018 08:00:00 21,1 15,0 11 6 N 1016,1 25
21.09.2018 07:00:00 21,1 15,0 15 8 N 1016,0 27
21.09.2018 06:00:00 21,1 15,2 15 8 N 1015,8 23
21.09.2018 05:00:00 21,4 15,5 15 8 N 1015,8 22
21.09.2018 04:00:00 21,6 17,2 13 7 N 1016,2 20
21.09.2018 03:00:00 22,2 18,8 11 6 NNW 1016,6 12
21.09.2018 02:00:00 22,7 19,1 11 6 N 1017,1 15
21.09.2018 01:00:00 23,1 17,8 0 0 N 1017,4 20
21.09.2018 00:00:00 23,5 17,5 4 2 N 1017,6 22
20.09.2018 23:00:00 23,9 19,4 2 1 W 1017,5 20
20.09.2018 22:00:00 24,2 20,7 9 5 W 1017,6 21
20.09.2018 21:00:00 25,1 21,0 16 9 WSW 1017,4 25
20.09.2018 20:00:00 25,6 21,5 16 9 WSW 1017,1 30
20.09.2018 19:00:00 26,7 21,6 21 11 WSW 1017,2 28
20.09.2018 18:00:00 27,4 20,4 21 11 WSW 1017,1 30
20.09.2018 17:00:00 28,1 20,6 21 11 WSW 1017,5 30

tt = Température de l'air
td = dewpoint
ff = Vitesse du vent
dd = Direction du vent
ppp = reduced air pressure
vv = visibility

stations d'obs. à proximité